User: anonymous   Login
Location: Writing-on-Stone Provincial Park
(49.0825°N, 111.6163°W)
Time: 18:19:43
(UTC-06:00)
Language:

BREEZE-M DEB (TANK) - Orbit

View from above orbital plane
View from above orbital plane
View from above satellite
View from above satellite

Ground track
Ground track

The orbit data is extracted from the following two-line orbital elements,

1 29649U 06056B   17079.89968330 +.00001162 +00000-0 +27781-3 0  9995
2 29649 049.4914 298.2245 5374072 106.2685 317.0194 04.99318375183377
Epoch (UTC): 20 March 2017 21:35:32
Eccentricity: 0.5374072
inclination: 49.4914°
perigee height: 310 km
apogee height: 15852 km
right ascension of ascending node: 298.2245°
argument of perigee: 106.2685°
revolutions per day: 4.99318375
mean anomaly at epoch: 317.0194°
orbit number at epoch: 18337

The dashed part of the orbit path shows where the satellite is in the earth's shadow,  

DLR